www.pogodaiklimat.ru

Погода и климат >> Архив погоды >> Украина >> Комиссаровка


ПОГОДА в Комиссаровке

  • Прогноз погоды в Комиссаровке
  • Монитор погоды в Комиссаровке

АРХИВ ПОГОДЫ в Комиссаровке

Время (UTC), дата Ветер
(напр.,м/с)
 
Видим.   Явления Облачность Т
(С)
Тd
(С)
f
(%)
Тe
(С)
Тes
(С)
Комфортность P
(гПа)
Po
(гПа)
Тmin
(С)
Tmax
(С)
R
(мм)
R24
(мм)
S
(см)
12 10.07 ЮЗ 4 20 км 6/6 600 м
[Cu med, cong]
+21.8 +8.7 43 +23 +27 комфорт 1006.0 992.4
15 10.07 З 2 20 км 3/3 600 м
[Cu med, cong Ci fib]
+22.4 +12.1 52 +25 +27 комфорт 1005.0 991.4
18 10.07 штиль 0 20 км 4/3 600 м
[Cb calv Ac trans]
+18.6 +12.6 68 +19 +19 1006.0 992.2 +24.0
21 10.07 штиль 0 16 км 4/0
[Ac trans]
+13.7 +10.1 79 +13 +13 1007.0 993.0
00 11.07 штиль 0 14 км 8/0
[Ac trans Ci fib]
+12.6 +10.7 88 +12 +12 1006.0 992.0
03 11.07 штиль 0 20 км 10/0
[Ac trans Ci fib]
+12.3 +10.4 88 +12 +12 1006.0 991.9
06 11.07 штиль 0 20 км 10/0
[Ac trans Ci]
+15.7 +13.0 84 +15 +15 1006.0 992.1 +11.7
09 11.07 СЗ 2 20 км 8/8 600 м
[Cu med, cong Ci fib]
+19.9 +11.9 60 +22 +22 комфорт 1006.0 992.3
12 11.07 СЗ 2 20 км 8/6 600 м
[Cu med, cong Ci fib]
+22.7 +10.8 47 +25 +30 комфорт 1005.2 991.7
15 11.07 СЗ 1 20 км 4/4 600 м
[Cu med, cong]
+21.8 +12.7 56 +24 +27 комфорт 1005.3 991.7
18 11.07 штиль 0 20 км 6/6 600 м
[Cb calv]
+18.4 +13.3 72 +19 +19 1006.5 992.8 +23.6
21 11.07 штиль 0 18 км 3/0
[Ac trans]
+13.6 +12.5 93 +13 +13 1007.5 993.5
00 12.07 штиль 0 12 км ясно +11.2 +10.4 95 +10 +10 1007.5 993.4
03 12.07 штиль 0 7000 м дымка 3/0
[Ac lent]
+10.2 +9.8 97 +9 +10 1007.9 993.7
06 12.07 штиль 0 20 км 8/1 600 м
[Cu hum Ac trans]
+17.8 +13.3 75 +18 +18 1008.0 994.2 +9.7
09 12.07 З 1 20 км 8/8 600 м
[Cu med, cong]
+22.0 +11.1 50 +24 +24 комфорт 1008.0 994.4
12 12.07 СВ 3 20 км 9/9 600 м
[Cb calv]
+21.4 +12.3 56 +24 +24 комфорт 1007.0 993.4
15 12.07 штиль 0 20 км 6/4 600 м
[Cu med, cong Ci fib]
+22.4 +12.3 53 +25 +27 комфорт 1007.0 993.4
18 12.07 ЮЗ 1 20 км 8/8 600 м
[Cb calv]
+19.3 +13.9 71 +22 +22 комфорт 1008.0 994.3 +23.3
21 12.07 штиль 0 19 км зарница 3/3 600 м
[Cb cap]
+14.3 +13.3 94 +14 +14 1009.0 995.0
00 13.07 штиль 0 16 км ясно +12.3 +11.8 97 +12 +12 1009.0 994.9
03 13.07 штиль 0 13 км ясно +11.6 +11.1 97 +11 +12 1009.0 994.9
06 13.07 С 1 20 км ясно +19.0 +13.0 68 +21 +31 комфорт 1009.0 995.2 +10.2
09 13.07 З 1 20 км 8/8 600 м
[Cb calv]
+21.6 +11.9 54 +24 +24 комфорт 1009.0 995.3
12 13.07 С 1 20 км 6/5 600 м
[Cb calv Ac trans]
+22.4 +13.7 58 +26 +32 жарко 1008.0 994.4
15 13.07 С 1 20 км гроза без осадков {ливн. осадки} 6/6 600 м
[Cb cap]
+19.9 +12.6 63 +23 +24 комфорт 1009.0 995.3
18 13.07 штиль 0 20 км {гроза, ливн. осадки} 1/1 600 м
[Cb calv]
+17.1 +14.4 84 +17 +17 1009.0 995.1 +24.8 0.6
21 13.07 С 1 18 км 3/1 600 м
[Cb calv Ac trans]
+15.9 +12.3 79 +17 +17 1010.0 996.1
00 14.07 штиль 0 14 км 6/0
[Ac trans Ci fib]
+13.5 +12.4 93 +13 +13 1009.0 995.0
03 14.07 штиль 0 8000 м дымка 1/1 600 м
[Cb calv]
+11.5 +10.7 95 +11 +11 1010.0 995.8
06 14.07 СВ 1 20 км ясно +19.6 +15.5 77 +23 +33 комфорт 1010.0 996.3 +10.9
09 14.07 СВ 1 20 км 4/3 600 м
[Cu med, cong Ci fib]
+23.7 +15.5 60 +27 +41 жарко 1009.0 995.5
12 14.07 СВ 2 20 км 6/4 600 м
[Cu med, cong Ci fib]
+24.4 +15.6 58 +27 +33 жарко 1008.0 994.5
15 14.07 СВ 1 20 км 3/3 600 м
[Cb calv]
+25.4 +14.2 50 +28 +31 жарко 1008.0 994.5
18 14.07 штиль 0 20 км 4/3 600 м
[Cb calv Ac trans]
+20.6 +12.0 58 +22 +22 комфорт 1008.0 994.3 +25.8
21 14.07 штиль 0 17 км 4/0
[Ac trans]
+15.2 +12.9 86 +15 +15 1009.0 995.0
00 15.07 штиль 0 16 км 3/0
[Ac trans]
+13.0 +11.2 89 +12 +12 1008.0 993.9
03 15.07 штиль 0 18 км 3/0
[Ac trans]
+12.6 +11.2 91 +12 +13 1008.0 993.9
06 15.07 СВ 1 18 км 3/0
[Ci fib]
+22.5 +14.8 62 +26 +33 жарко 1008.0 994.4 +12.0
09 15.07 ЮВ 2 20 км 4/3 600 м
[Cu med, cong Ci fib]
+26.7 +11.6 39 +28 +40 жарко 1007.0 993.6
12 15.07 СВ 2 20 км 8/5 600 м
[Cu med, cong Ci fib]
+26.8 +12.4 41 +28 +28 жарко 1006.0 992.6
15 15.07 С 1 20 км 8/8 600 м
[Cb calv Ci fib]
+27.1 +14.1 45 +29 +29 жарко 1006.0 992.6
18 15.07 СЗ 1 20 км гроза без осадков 10/10 600 м
[Cb cap]
+21.4 +13.0 59 +24 +24 комфорт 1007.0 993.4 +27.9
21 15.07 З 2 18 км {гроза} 10/3 1000 м
[Sc Ci fib]
+19.8 +13.5 67 +22 +22 комфорт 1007.0 993.3
00 16.07 СЗ 1 15 км в посл. час ливневой дождь {гроза} 10/8 600 м
[Cb cap Ci fib]
+16.4 +14.0 86 +17 +17 1007.0 993.1 1
03 16.07 СВ 1 20 км 10/10 600 м
[Cb calv]
+16.6 +14.2 86 +17 +17 1007.0 993.1
06 16.07 С 2 20 км 9/3 1000 м
[Sc Ac trans]
+18.8 +15.7 82 +20 +20 1007.0 993.3 +16.0 1
09 16.07 СЗ 2 20 км 10/3 600 м
[Cu hum Ci fib]
+22.8 +15.9 65 +27 +27 душно 1007.0 993.4
12 16.07 СЗ 2 20 км 8/6 600 м
[Cb calv Ci fib]
+25.0 +14.7 53 +28 +28 жарко 1006.0 992.6
15 16.07 СЗ 2 20 км 6/3 600 м
[Cb calv Ci fib]
+24.9 +14.9 54 +28 +29 жарко 1006.0 992.5
18 16.07 штиль 0 20 км 4/3 600 м
[Cb calv Ac trans]
+20.2 +14.1 68 +22 +22 комфорт 1007.0 993.3 +25.6
21 16.07 штиль 0 15 км 3/0
[Ci fib]
+15.4 +13.6 89 +15 +15 1008.0 994.1
00 17.07 штиль 0 12 км 6/0
[Ci fib]
+13.7 +12.8 94 +13 +13 1008.0 994.0
03 17.07 штиль 0 7000 м дымка 3/0
[Ac trans Ci fib]
+12.8 +12.2 96 +12 +13 1008.0 993.9
06 17.07 штиль 0 20 км ясно +20.0 +14.4 70 +22 +33 комфорт 1008.0 994.3 +11.9
09 17.07 ЮЗ 1 20 км 6/6 600 м
[Cb calv]
+25.0 +11.2 42 +26 +34 жарко 1007.0 993.5

 

Местоположение метеостанции Комиссаровка (Днепропетровская область, Украина): широта 48.43 долгота 33.90 высота над уровнем моря 118 м.

В архиве по умолчанию представлена погода в Комиссаровке за последнюю неделю. Архивные данные за месяц целиком и за предыдущие месяцы, начиная с января 2011 года, Вы можете получить, выбрав интересующий диапазон дат из раскрывающегося списка и нажав кнопку "Ввод!".


*Определитесь, кто Вы:
робот инопланетянин человек

Внимание! Время в таблицах - всемирное. Для получения местного времени необходимо прибавить поправку, которая равна 2 ч.

Смотрите также архив погоды в соседних городах и на ближайших метеорологических станциях:

Погода в Лошкаревке (Днепропетровская область, Украина) (53 км)
Погода в Кривом Роге (Днепропетровская область, Украина) (67 км)
Погода в Днепре (Днепропетровская область, Украина) (81 км)
Погода в Кобеляках (Полтавская область, Украина) (83 км)
Погода в Светловодске (Кировоградская область, Украина) (84 км)
Погода в Долинской (Кировоградская область, Украина) (90 км)
Погода в Знаменке (Кировоградская область, Украина) (96 км)
Погода в Никополе (Днепропетровская область, Украина) (103 км)
Погода в Губинихе (Днепропетровская область, Украина) (107 км)
Погода в Запорожье (Запорожская область, Украина) (109 км)

Пояснения к столбцам:

Ветер - указаны скорость ветра в м/с - средняя за 10 мин, порывы в срок и между сроками (в фигурных скобках) и направление, откуда дует ветер: С - северный, СВ - северо-восточный, В - восточный, ЮВ - юго-восточный, Ю - южный, ЮЗ - юго-западный, З - западный, СЗ - северо-западный.
Видимость - горизонтальная дальность видимости в метрах или километрах. При видимости от 1 до 10 км при отсутствии осадков обычно наблюдается дымка, при ухудшении видимости до 1 км и менее - туман. В сухую погоду видимость может ухудшаться дымом, пылью или мглою.
Явления - указаны атмосферные явления, наблюдавшиеся в срок или в последний час перед сроком; фигурными скобками обозначены явления, наблюдавшиеся между сроками (за 1-3 часа до срока); квадратными скобками обозначены град или гололедные отложения с указанием их диаметра в мм.
Облачность - указаны через наклонную черту общая и нижняя облачность в баллах и высота нижней границы облаков в метрах; квадратными скобками обозначены формы облаков: Ci - перистые, Cs - перисто-слоистые, Cc - перисто-кучевые, Ac - высококучевые, As - высокослоистые, Sc - слоисто-кучевые, Ns - слоисто-дождевые, Cu - кучевые, Cb - кучево-дождевые. Подробнее классификацию облаков см. в Атласе облаков (PDF).
T - Температура воздуха - температура, измеренная на высоте 2 м над землей.
Td - Температура точки росы - температура, при понижении до которой содержащийся в воздухе водяной пар достигнет насыщения.
f - Относительная влажность воздуха - влажноcть воздуха, измеренная на высоте 2 м над землей.
Te - Эффективная температура - температура, которую ощущает одетый по сезону человек в тени. Характеристика душности погоды. При расчете учитывается влияние влажности воздуха и скорости ветра на теплоощущения человека.
Tes - Эффективная температура на солнце - температура, которую ощущает человек, с поправкой на солнечный нагрев. Характеристика знойности погоды. Зависит от высоты солнца над горизонтом, облачности и скорости ветра. Ночью, в пасмурную погоду, а также при ветре 12 м/с и более поправка равна нулю.
P - Атмосферное давление - приведенное к уровню моря атмосферное давление.
Po - Атмосферное давление - измеренное на уровне метеостанции атмосферное давление.
Tmin - Минимальная температура - минимум температуры воздуха на высоте 2 м над землей.
Tmax - Максимальная температура - максимум температуры воздуха на высоте 2 м над землей.
R - Количество осадков - Количество выпавших осадков за период времени, мм. При наведении курсора мыши на число - период времени, за который выпало указанное количество осадков.
R24 - Количество осадков - Количество выпавших осадков за 24 часа, мм.
S - Снежный покров - Высота снежного покрова, см. При наведении курсора мыши на число - состояние снежного покрова и степень покрытия местности в баллах.